Time,TemperatureF,DewpointF,PressureIn,WindDirection,WindDirectionDegrees,WindSpeedMPH,WindSpeedGustMPH,Humidity,HourlyPrecipIn,Conditions,Clouds,dailyrainin,SoftwareType,DateUTC
2013-03-06 00:12:00,57.4,37.9,29.95,SSE,157,0.0,-999.0,48,-99.99,,,0.00,Acu-Link.com,2013-03-06 07:12:00,
2013-03-06 00:28:00,57.2,37.2,29.94,SE,135,0.0,-999.0,47,-99.99,,,0.00,Acu-Link.com,2013-03-06 07:28:00,
2013-03-06 00:43:00,57.6,37.5,29.94,South,180,0.0,-999.0,47,-99.99,,,0.00,Acu-Link.com,2013-03-06 07:43:00,
2013-03-06 00:58:00,58.5,37.8,29.94,South,180,0.0,-999.0,46,-99.99,,,0.00,Acu-Link.com,2013-03-06 07:58:00,
2013-03-06 01:13:00,57.9,37.8,29.93,South,180,0.0,-999.0,47,-99.99,,,0.00,Acu-Link.com,2013-03-06 08:13:00,
2013-03-06 01:28:00,58.3,38.2,29.93,SSW,202,0.0,-999.0,47,-99.99,,,0.00,Acu-Link.com,2013-03-06 08:28:00,
2013-03-06 01:44:00,57.6,37.5,29.93,SSW,202,0.0,-999.0,47,-99.99,,,0.00,Acu-Link.com,2013-03-06 08:44:00,
2013-03-06 01:59:00,57.2,38.7,29.93,West,270,0.0,-999.0,50,-99.99,,,0.00,Acu-Link.com,2013-03-06 08:59:00,
2013-03-06 02:22:00,57.4,39.4,29.93,West,270,2.2,-999.0,51,-99.99,,,0.00,Acu-Link.com,2013-03-06 09:22:00,
2013-03-06 02:37:00,57.4,38.4,29.92,WSW,247,0.0,-999.0,49,-99.99,,,0.00,Acu-Link.com,2013-03-06 09:37:00,
2013-03-06 02:52:00,57.6,38.6,29.92,SSE,157,2.7,-999.0,49,-99.99,,,0.00,Acu-Link.com,2013-03-06 09:52:00,
2013-03-06 03:08:00,57.6,39.1,29.93,WNW,292,0.0,-999.0,50,-99.99,,,0.00,Acu-Link.com,2013-03-06 10:08:00,
2013-03-06 03:23:00,57.0,38.5,29.92,SE,135,0.0,-999.0,50,-99.99,,,0.00,Acu-Link.com,2013-03-06 10:23:00,
2013-03-06 03:38:00,56.1,39.2,29.92,ESE,112,0.0,-999.0,53,-99.99,,,0.00,Acu-Link.com,2013-03-06 10:38:00,
2013-03-06 03:53:00,55.4,39.0,29.94,SW,225,0.0,-999.0,54,-99.99,,,0.00,Acu-Link.com,2013-03-06 10:53:00,
2013-03-06 04:08:00,55.8,39.4,29.93,SSW,202,0.0,-999.0,54,-99.99,,,0.00,Acu-Link.com,2013-03-06 11:08:00,
2013-03-06 04:24:00,55.6,38.7,29.93,South,180,2.7,-999.0,53,-99.99,,,0.00,Acu-Link.com,2013-03-06 11:24:00,
2013-03-06 04:39:00,55.0,38.2,29.93,ESE,112,0.0,-999.0,53,-99.99,,,0.00,Acu-Link.com,2013-03-06 11:39:00,
2013-03-06 04:54:00,54.9,38.6,29.92,ESE,112,2.7,-999.0,54,-99.99,,,0.00,Acu-Link.com,2013-03-06 11:54:00,
2013-03-06 05:09:00,54.1,38.3,29.93,SE,135,2.2,-999.0,55,-99.99,,,0.00,Acu-Link.com,2013-03-06 12:09:00,
2013-03-06 05:24:00,55.0,38.2,29.93,SSE,157,1.1,-999.0,53,-99.99,,,0.00,Acu-Link.com,2013-03-06 12:24:00,
2013-03-06 05:40:00,55.9,38.0,29.93,SSE,157,2.2,-999.0,51,-99.99,,,0.00,Acu-Link.com,2013-03-06 12:40:00,
2013-03-06 05:55:00,56.3,37.4,29.93,South,180,3.2,-999.0,49,-99.99,,,0.00,Acu-Link.com,2013-03-06 12:55:00,
2013-03-06 06:10:00,55.4,37.1,29.94,SE,135,0.0,-999.0,50,-99.99,,,0.00,Acu-Link.com,2013-03-06 13:10:00,
2013-03-06 06:25:00,53.8,37.5,29.93,SW,225,0.0,-999.0,54,-99.99,,,0.00,Acu-Link.com,2013-03-06 13:25:00,
2013-03-06 06:41:00,53.4,38.1,29.95,WNW,292,0.0,-999.0,56,-99.99,,,0.00,Acu-Link.com,2013-03-06 13:41:00,
2013-03-06 06:56:00,52.3,38.0,29.95,SSE,157,0.0,-999.0,58,-99.99,,,0.00,Acu-Link.com,2013-03-06 13:56:00,
2013-03-06 07:11:00,52.2,38.3,29.95,South,180,2.7,-999.0,59,-99.99,,,0.00,Acu-Link.com,2013-03-06 14:11:00,
2013-03-06 07:26:00,57.0,40.0,29.95,SSW,202,0.0,-999.0,53,-99.99,,,0.00,Acu-Link.com,2013-03-06 14:26:00,
2013-03-06 07:41:00,61.3,40.3,29.95,ESE,112,0.0,-999.0,46,-99.99,,,0.00,Acu-Link.com,2013-03-06 14:41:00,
2013-03-06 07:57:00,64.4,40.2,29.95,SE,135,3.2,-999.0,41,-99.99,,,0.00,Acu-Link.com,2013-03-06 14:57:00,
2013-03-06 08:12:00,63.9,39.7,29.95,South,180,1.7,-999.0,41,-99.99,,,0.00,Acu-Link.com,2013-03-06 15:12:00,
2013-03-06 08:27:00,63.9,39.7,29.96,ESE,112,0.0,-999.0,41,-99.99,,,0.00,Acu-Link.com,2013-03-06 15:27:00,
2013-03-06 08:42:00,64.0,39.8,29.96,ENE,67,0.0,-999.0,41,-99.99,,,0.00,Acu-Link.com,2013-03-06 15:42:00,
2013-03-06 08:57:00,65.1,40.2,29.97,SSE,157,0.0,-999.0,40,-99.99,,,0.00,Acu-Link.com,2013-03-06 15:57:00,
2013-03-06 09:13:00,64.8,40.5,29.98,East,90,0.0,-999.0,41,-99.99,,,0.00,Acu-Link.com,2013-03-06 16:13:00,
2013-03-06 09:28:00,66.9,40.5,29.97,NE,45,0.0,-999.0,38,-99.99,,,0.00,Acu-Link.com,2013-03-06 16:28:00,
2013-03-06 09:43:00,70.0,38.8,29.96,ESE,112,2.7,-999.0,32,-99.99,,,0.00,Acu-Link.com,2013-03-06 16:43:00,
2013-03-06 09:58:00,70.3,38.2,29.95,SSE,157,0.0,-999.0,31,-99.99,,,0.00,Acu-Link.com,2013-03-06 16:58:00,
2013-03-06 10:13:00,70.7,36.9,29.96,NNE,22,1.7,-999.0,29,-99.99,,,0.00,Acu-Link.com,2013-03-06 17:13:00,
2013-03-06 10:29:00,73.4,38.3,29.96,NE,45,0.0,-999.0,28,-99.99,,,0.00,Acu-Link.com,2013-03-06 17:29:00,
2013-03-06 10:44:00,75.9,15.4,29.97,WNW,292,2.2,-999.0,10,-99.99,,,0.00,Acu-Link.com,2013-03-06 17:44:00,
2013-03-06 11:00:00,75.0,-31.8,29.95,SSW,202,1.1,-999.0,1,-99.99,,,0.00,Acu-Link.com,2013-03-06 18:00:00,
2013-03-06 11:15:00,76.3,-31.0,29.95,West,270,5.3,-999.0,1,-99.99,,,0.00,Acu-Link.com,2013-03-06 18:15:00,
2013-03-06 11:30:00,75.7,-31.4,29.96,WNW,292,3.7,-999.0,1,-99.99,,,0.00,Acu-Link.com,2013-03-06 18:30:00,
2013-03-06 11:45:00,75.4,-31.6,29.95,WNW,292,2.2,-999.0,1,-99.99,,,0.00,Acu-Link.com,2013-03-06 18:45:00,
2013-03-06 12:01:00,77.9,-30.1,29.93,ENE,67,2.7,-999.0,1,-99.99,,,0.00,Acu-Link.com,2013-03-06 19:01:00,
2013-03-06 12:16:00,76.3,-31.0,29.92,WNW,292,5.8,-999.0,1,-99.99,,,0.00,Acu-Link.com,2013-03-06 19:16:00,
2013-03-06 12:31:00,78.3,-29.9,29.92,East,90,5.8,-999.0,1,-99.99,,,0.00,Acu-Link.com,2013-03-06 19:31:00,
2013-03-06 12:46:00,78.8,-29.6,29.90,West,270,4.7,-999.0,1,-99.99,,,0.00,Acu-Link.com,2013-03-06 19:46:00,
2013-03-06 13:02:00,79.2,-29.3,29.89,WSW,247,6.3,-999.0,1,-99.99,,,0.00,Acu-Link.com,2013-03-06 20:02:00,
2013-03-06 13:17:00,80.2,-28.7,29.90,ESE,112,5.3,-999.0,1,-99.99,,,0.00,Acu-Link.com,2013-03-06 20:17:00,
2013-03-06 13:32:00,81.7,-27.8,29.87,NNE,22,3.2,-999.0,1,-99.99,,,0.00,Acu-Link.com,2013-03-06 20:32:00,
2013-03-06 13:48:00,79.7,-29.0,29.85,SSW,202,1.1,-999.0,1,-99.99,,,0.00,Acu-Link.com,2013-03-06 20:48:00,
2013-03-06 14:03:00,80.4,-28.6,29.85,ESE,112,1.7,-999.0,1,-99.99,,,0.00,Acu-Link.com,2013-03-06 21:03:00,
2013-03-06 14:18:00,81.5,-27.9,29.84,West,270,1.7,-999.0,1,-99.99,,,0.00,Acu-Link.com,2013-03-06 21:18:00,
2013-03-06 14:34:00,82.8,-27.2,29.84,WNW,292,7.8,-999.0,1,-99.99,,,0.00,Acu-Link.com,2013-03-06 21:34:00,
2013-03-06 14:49:00,83.8,-26.6,29.83,West,270,6.8,-999.0,1,-99.99,,,0.00,Acu-Link.com,2013-03-06 21:49:00,
2013-03-06 15:04:00,82.8,-27.2,29.82,NW,315,4.7,-999.0,1,-99.99,,,0.00,Acu-Link.com,2013-03-06 22:04:00,
2013-03-06 15:22:00,83.5,-26.8,29.83,West,270,2.2,-999.0,1,-99.99,,,0.00,Acu-Link.com,2013-03-06 22:22:00,
2013-03-06 15:37:00,85.6,-25.5,29.83,NW,315,2.7,-999.0,1,-99.99,,,0.00,Acu-Link.com,2013-03-06 22:37:00,
2013-03-06 15:52:00,86.0,-25.3,29.82,West,270,11.9,-999.0,1,-99.99,,,0.00,Acu-Link.com,2013-03-06 22:52:00,
2013-03-06 16:08:00,86.0,-25.3,29.82,WNW,292,8.3,-999.0,1,-99.99,,,0.00,Acu-Link.com,2013-03-06 23:08:00,
2013-03-06 16:23:00,87.4,-24.5,29.81,NW,315,4.2,-999.0,1,-99.99,,,0.00,Acu-Link.com,2013-03-06 23:23:00,
2013-03-06 16:40:00,84.9,-25.9,29.82,WNW,292,6.8,-999.0,1,-99.99,,,0.00,Acu-Link.com,2013-03-06 23:40:00,
2013-03-06 16:59:00,84.2,-26.3,29.81,WNW,292,9.9,-999.0,1,-99.99,,,0.00,Acu-Link.com,2013-03-06 23:59:00,
2013-03-06 17:15:00,84.9,-25.9,29.80,WNW,292,8.3,-999.0,1,-99.99,,,0.00,Acu-Link.com,2013-03-07 00:15:00,
2013-03-06 17:35:00,82.9,-27.1,29.80,NW,315,5.8,-999.0,1,-99.99,,,0.00,Acu-Link.com,2013-03-07 00:35:00,
2013-03-06 17:50:00,82.0,-27.7,29.81,West,270,3.2,-999.0,1,-99.99,,,0.00,Acu-Link.com,2013-03-07 00:50:00,
2013-03-06 18:05:00,79.9,-28.9,29.80,NW,315,6.3,-999.0,1,-99.99,,,0.00,Acu-Link.com,2013-03-07 01:05:00,
2013-03-06 18:20:00,77.4,-30.4,29.80,WNW,292,5.8,-999.0,1,-99.99,,,0.00,Acu-Link.com,2013-03-07 01:20:00,
2013-03-06 18:35:00,74.7,32.2,29.80,WNW,292,5.8,-999.0,21,-99.99,,,0.00,Acu-Link.com,2013-03-07 01:35:00,
2013-03-06 18:51:00,73.2,32.1,29.80,WNW,292,5.3,-999.0,22,-99.99,,,0.00,Acu-Link.com,2013-03-07 01:51:00,
2013-03-06 19:06:00,72.3,32.4,29.81,West,270,3.7,-999.0,23,-99.99,,,0.00,Acu-Link.com,2013-03-07 02:06:00,
2013-03-06 19:21:00,71.2,32.6,29.81,West,270,2.7,-999.0,24,-99.99,,,0.00,Acu-Link.com,2013-03-07 02:21:00,
2013-03-06 19:36:00,70.2,33.7,29.81,WNW,292,2.2,-999.0,26,-99.99,,,0.00,Acu-Link.com,2013-03-07 02:36:00,
2013-03-06 19:51:00,69.4,34.0,29.82,West,270,2.7,-999.0,27,-99.99,,,0.00,Acu-Link.com,2013-03-07 02:51:00,
2013-03-06 20:07:00,68.7,33.4,29.82,WSW,247,1.1,-999.0,27,-99.99,,,0.00,Acu-Link.com,2013-03-07 03:07:00,
2013-03-06 20:22:00,67.1,35.5,29.82,WSW,247,0.0,-999.0,31,-99.99,,,0.00,Acu-Link.com,2013-03-07 03:22:00,
2013-03-06 20:37:00,65.5,35.6,29.82,WSW,247,0.0,-999.0,33,-99.99,,,0.00,Acu-Link.com,2013-03-07 03:37:00,
2013-03-06 20:52:00,64.4,35.4,29.82,SW,225,1.1,-999.0,34,-99.99,,,0.00,Acu-Link.com,2013-03-07 03:52:00,
2013-03-06 21:08:00,63.5,35.4,29.83,WSW,247,0.0,-999.0,35,-99.99,,,0.00,Acu-Link.com,2013-03-07 04:08:00,
2013-03-06 21:23:00,63.1,35.7,29.84,WSW,247,0.0,-999.0,36,-99.99,,,0.00,Acu-Link.com,2013-03-07 04:23:00,
2013-03-06 21:38:00,63.5,35.4,29.83,South,180,2.7,-999.0,35,-99.99,,,0.00,Acu-Link.com,2013-03-07 04:38:00,
2013-03-06 21:54:00,61.9,36.0,29.85,East,90,2.7,-999.0,38,-99.99,,,0.00,Acu-Link.com,2013-03-07 04:54:00,
2013-03-06 22:09:00,60.6,35.5,29.84,SSW,202,0.0,-999.0,39,-99.99,,,0.00,Acu-Link.com,2013-03-07 05:09:00,
2013-03-06 22:24:00,59.5,35.8,29.84,South,180,0.0,-999.0,41,-99.99,,,0.00,Acu-Link.com,2013-03-07 05:24:00,
2013-03-06 22:39:00,59.4,35.7,29.85,South,180,0.0,-999.0,41,-99.99,,,0.00,Acu-Link.com,2013-03-07 05:39:00,
2013-03-06 22:55:00,58.1,35.7,29.85,SSW,202,0.0,-999.0,43,-99.99,,,0.00,Acu-Link.com,2013-03-07 05:55:00,
2013-03-06 23:10:00,58.5,36.1,29.85,SSW,202,0.0,-999.0,43,-99.99,,,0.00,Acu-Link.com,2013-03-07 06:10:00,
2013-03-06 23:25:00,57.4,36.8,29.84,West,270,0.0,-999.0,46,-99.99,,,0.00,Acu-Link.com,2013-03-07 06:25:00,
2013-03-06 23:40:00,56.5,36.0,29.85,WSW,247,0.0,-999.0,46,-99.99,,,0.00,Acu-Link.com,2013-03-07 06:40:00,
2013-03-06 23:55:00,56.1,36.2,29.84,ESE,112,2.2,-999.0,47,-99.99,,,0.00,Acu-Link.com,2013-03-07 06:55:00,